�������l�o���
Date,Time,MP-1(��Sv/h),MP-2(��Sv/h),MP-3(��Sv/h),MP-4(��Sv/h),MP-5(��Sv/h),MP-6(��Sv/h),MP-7(��Sv/h),MP-8(��Sv/h),����,����(m/s),���J
2024/04/20,00:00,0.514,0.783,0.491,0.967,0.697,0.319,0.555,0.522,��,11.1,��
2024/04/20,00:10,0.514,0.785,0.490,0.970,0.696,0.319,0.555,0.521,��,10.5,��
2024/04/20,00:20,0.513,0.785,0.491,0.967,0.696,0.318,0.555,0.523,��,10.5,��
2024/04/20,00:30,0.514,0.783,0.490,0.968,0.698,0.319,0.554,0.522,��,11.1,��
2024/04/20,00:40,0.513,0.782,0.490,0.967,0.696,0.320,0.554,0.520,��,10.0,��
2024/04/20,00:50,0.514,0.782,0.491,0.967,0.697,0.318,0.554,0.521,��,10.9,��
2024/04/20,01:00,0.513,0.782,0.490,0.970,0.696,0.317,0.554,0.522,��,10.2,��
2024/04/20,01:10,0.512,0.784,0.491,0.969,0.697,0.319,0.555,0.522,��,8.7,��
2024/04/20,01:20,0.512,0.783,0.490,0.965,0.696,0.318,0.554,0.523,��,8.6,��
2024/04/20,01:30,0.513,0.783,0.490,0.970,0.696,0.319,0.554,0.522,��,7.8,��
2024/04/20,01:40,0.513,0.784,0.489,0.965,0.696,0.319,0.555,0.521,��,6.4,��
2024/04/20,01:50,0.512,0.783,0.490,0.967,0.695,0.318,0.555,0.523,��,5.1,��
2024/04/20,02:00,0.514,0.780,0.490,0.968,0.697,0.319,0.556,0.521,��,5.0,��
2024/04/20,02:10,0.514,0.784,0.490,0.967,0.696,0.319,0.554,0.522,��,4.4,��
2024/04/20,02:20,0.512,0.783,0.491,0.969,0.697,0.318,0.555,0.521,��,5.1,��
2024/04/20,02:30,0.512,0.785,0.490,0.967,0.696,0.318,0.555,0.521,���쐼,5.1,��
2024/04/20,02:40,0.513,0.783,0.490,0.968,0.695,0.317,0.555,0.523,��,5.8,��
2024/04/20,02:50,0.514,0.782,0.489,0.969,0.697,0.318,0.554,0.520,��,4.7,��
2024/04/20,03:00,0.513,0.783,0.490,0.969,0.695,0.318,0.555,0.522,��,3.9,��
2024/04/20,03:10,0.511,0.782,0.489,0.968,0.695,0.318,0.556,0.521,���쐼,2.6,��
2024/04/20,03:20,0.514,0.781,0.490,0.970,0.695,0.317,0.555,0.521,���쐼,0.6,��
2024/04/20,03:30,0.512,0.783,0.489,0.969,0.695,0.317,0.555,0.522,��,1.7,��
2024/04/20,03:40,0.513,0.783,0.491,0.967,0.694,0.318,0.556,0.520,���k��,4.3,��
2024/04/20,03:50,0.513,0.783,0.489,0.969,0.695,0.317,0.554,0.520,���k��,7.6,��
2024/04/20,04:00,0.513,0.784,0.488,0.967,0.697,0.318,0.553,0.521,���k��,10.2,��
2024/04/20,04:10,0.512,0.784,0.490,0.967,0.696,0.319,0.555,0.521,���k��,7.3,��
2024/04/20,04:20,0.513,0.783,0.489,0.969,0.696,0.317,0.556,0.520,���k��,5.7,��
2024/04/20,04:30,0.511,0.782,0.490,0.968,0.696,0.318,0.554,0.521,���k��,7.1,��
2024/04/20,04:40,0.511,0.782,0.490,0.967,0.696,0.317,0.556,0.521,��,6.4,��
2024/04/20,04:50,0.513,0.782,0.489,0.969,0.696,0.318,0.555,0.520,���k��,6.6,��
2024/04/20,05:00,0.513,0.782,0.490,0.970,0.696,0.318,0.555,0.521,���k��,9.4,��
2024/04/20,05:10,0.512,0.781,0.491,0.970,0.695,0.318,0.555,0.522,���k��,6.7,��
2024/04/20,05:20,0.513,0.783,0.491,0.968,0.694,0.317,0.556,0.521,���k��,9.7,��
2024/04/20,05:30,0.513,0.785,0.491,0.968,0.697,0.318,0.557,0.521,���k��,7.9,��
2024/04/20,05:40,0.513,0.783,0.490,0.968,0.695,0.318,0.556,0.520,���k��,7.3,��
2024/04/20,05:50,0.513,0.782,0.490,0.969,0.695,0.319,0.556,0.522,��,5.8,��
2024/04/20,06:00,0.513,0.782,0.490,0.967,0.697,0.318,0.556,0.519,��,5.0,��
2024/04/20,06:10,0.513,0.783,0.491,0.966,0.697,0.317,0.555,0.521,��,4.0,��
2024/04/20,06:20,0.514,0.784,0.490,0.969,0.697,0.318,0.556,0.519,��,4.0,��
2024/04/20,06:30,0.513,0.784,0.490,0.969,0.697,0.317,0.556,0.521,��,4.3,��
2024/04/20,06:40,0.513,0.782,0.489,0.967,0.696,0.318,0.556,0.521,��,4.0,��
2024/04/20,06:50,0.513,0.784,0.490,0.971,0.696,0.317,0.556,0.521,���쐼,4.0,��
2024/04/20,07:00,0.513,0.785,0.492,0.968,0.696,0.318,0.558,0.521,�쐼,3.5,��
2024/04/20,07:10,0.513,0.783,0.489,0.968,0.694,0.317,0.556,0.521,���쐼,2.9,��
2024/04/20,07:20,0.513,0.785,0.491,0.969,0.693,0.317,0.557,0.521,���쐼,2.0,��
2024/04/20,07:30,0.512,0.784,0.490,0.968,0.696,0.317,0.558,0.520,���쐼,1.9,��
2024/04/20,07:40,0.513,0.783,0.492,0.969,0.696,0.317,0.557,0.521,��,2.3,��
2024/04/20,07:50,0.512,0.784,0.491,0.970,0.697,0.317,0.555,0.520,��,4.2,��
2024/04/20,08:00,0.513,0.780,0.489,0.969,0.698,0.317,0.557,0.521,���k��,4.4,��
2024/04/20,08:10,0.513,0.782,0.491,0.970,0.697,0.316,0.556,0.521,��,3.3,��
2024/04/20,08:20,0.514,0.782,0.490,0.969,0.695,0.316,0.555,0.521,���k��,3.6,��
2024/04/20,08:30,0.513,0.781,0.488,0.970,0.694,0.316,0.555,0.519,��,4.0,��
2024/04/20,08:40,0.511,0.781,0.489,0.968,0.693,0.317,0.555,0.519,��,4.8,��
2024/04/20,08:50,0.511,0.779,0.489,0.969,0.694,0.314,0.554,0.518,��,5.4,��
2024/04/20,09:00,0.510,0.781,0.489,0.969,0.695,0.317,0.556,0.518,���쐼,3.8,��
2024/04/20,09:10,0.511,0.781,0.490,0.969,0.694,0.315,0.555,0.519,��,4.3,��
2024/04/20,09:20,0.512,0.781,0.490,0.969,0.696,0.317,0.555,0.518,���k��,4.6,��
2024/04/20,09:30,0.511,0.781,0.489,0.969,0.695,0.318,0.555,0.518,��,4.2,��
2024/04/20,09:40,0.512,0.783,0.489,0.970,0.696,0.317,0.555,0.519,���k��,4.3,��
2024/04/20,09:50,0.512,0.781,0.489,0.971,0.694,0.315,0.556,0.521,��,3.6,��
2024/04/20,10:00,0.513,0.782,0.490,0.971,0.697,0.317,0.556,0.520,�k��,3.3,��
2024/04/20,10:10,0.512,0.782,0.489,0.972,0.695,0.317,0.557,0.520,���k��,4.6,��
2024/04/20,10:20,0.512,0.783,0.490,0.970,0.696,0.317,0.556,0.519,���k��,4.0,��
2024/04/20,10:30,0.514,0.782,0.489,0.972,0.695,0.316,0.554,0.518,�k��,5.2,��
2024/04/20,10:40,0.512,0.785,0.490,0.971,0.696,0.318,0.555,0.519,��,4.3,��
2024/04/20,10:50,0.511,0.783,0.490,0.971,0.694,0.317,0.556,0.519,��,5.0,��
2024/04/20,11:00,0.513,0.783,0.489,0.971,0.696,0.318,0.556,0.519,���k��,4.3,��
2024/04/20,11:10,0.513,0.784,0.489,0.973,0.696,0.318,0.554,0.519,���k��,4.7,��
2024/04/20,11:20,0.512,0.781,0.490,0.972,0.695,0.318,0.556,0.520,�k��,6.5,��
2024/04/20,11:30,0.512,0.782,0.489,0.971,0.697,0.317,0.554,0.519,���k��,7.9,��
2024/04/20,11:40,0.513,0.783,0.490,0.969,0.695,0.318,0.557,0.520,�k��,9.6,��
2024/04/20,11:50,0.512,0.785,0.489,0.970,0.696,0.317,0.555,0.521,�k��,9.7,��
2024/04/20,12:00,0.513,0.782,0.491,0.968,0.696,0.318,0.556,0.521,�k��,5.8,��
2024/04/20,12:10,0.513,0.784,0.491,0.966,0.697,0.317,0.556,0.520,���k��,6.9,��
2024/04/20,12:20,0.515,0.783,0.491,0.968,0.698,0.318,0.555,0.519,�k��,8.9,��
2024/04/20,12:30,0.513,0.785,0.490,0.972,0.697,0.317,0.556,0.521,�k��,11.3,��
2024/04/20,12:40,0.514,0.785,0.490,0.970,0.697,0.317,0.555,0.521,�k��,7.3,��
2024/04/20,12:50,0.514,0.783,0.491,0.970,0.698,0.317,0.556,0.520,�k��,12.2,��
2024/04/20,13:00,0.514,0.784,0.490,0.969,0.697,0.318,0.555,0.520,�k��,9.1,��
2024/04/20,13:10,0.514,0.784,0.489,0.971,0.699,0.318,0.556,0.521,�k��,9.8,��
2024/04/20,13:20,0.514,0.784,0.490,0.969,0.697,0.318,0.555,0.520,�k��,9.5,��
2024/04/20,13:30,0.514,0.784,0.489,0.972,0.698,0.318,0.555,0.521,�k��,8.1,��
2024/04/20,13:40,0.514,0.784,0.490,0.971,0.699,0.318,0.557,0.521,�k��,10.2,��
2024/04/20,13:50,0.514,0.781,0.488,0.972,0.696,0.316,0.555,0.521,�k��,9.8,��
2024/04/20,14:00,0.513,0.782,0.491,0.968,0.698,0.318,0.554,0.522,�k��,9.2,��
2024/04/20,14:10,0.513,0.783,0.489,0.970,0.699,0.319,0.555,0.519,���k��,10.2,��
2024/04/20,14:20,0.514,0.784,0.490,0.973,0.696,0.318,0.555,0.523,�k��,7.4,��
2024/04/20,14:30,0.513,0.783,0.490,0.970,0.697,0.317,0.557,0.520,�k��,5.9,��
2024/04/20,14:40,0.514,0.782,0.489,0.974,0.697,0.318,0.555,0.521,�k��,5.2,��
2024/04/20,14:50,0.513,0.783,0.490,0.974,0.697,0.319,0.557,0.520,�k�k��,6.4,��
2024/04/20,15:00,0.513,0.785,0.490,0.973,0.696,0.316,0.554,0.520,�k�k��,5.1,��
2024/04/20,15:10,0.513,0.784,0.491,0.972,0.698,0.317,0.556,0.522,�k�k��,6.0,��
2024/04/20,15:20,0.513,0.784,0.489,0.974,0.698,0.317,0.556,0.521,�k�k��,6.1,��
2024/04/20,15:30,0.514,0.782,0.490,0.971,0.697,0.317,0.558,0.521,�k�k��,3.2,��
2024/04/20,15:40,0.513,0.783,0.489,0.973,0.699,0.316,0.555,0.522,�k,3.2,��
2024/04/20,15:50,0.514,0.784,0.488,0.974,0.699,0.318,0.556,0.521,�k�k��,3.3,��
2024/04/20,16:00,0.513,0.786,0.491,0.976,0.700,0.316,0.557,0.521,�k�k��,2.9,��
2024/04/20,16:10,0.513,0.784,0.492,0.975,0.699,0.316,0.555,0.522,�k��,4.5,��
2024/04/20,16:20,0.515,0.786,0.491,0.975,0.699,0.318,0.554,0.522,�k��,4.4,��
2024/04/20,16:30,0.515,0.786,0.492,0.974,0.698,0.318,0.556,0.521,�k��,3.8,��
2024/04/20,16:40,0.513,0.784,0.492,0.975,0.699,0.317,0.555,0.521,�k��,4.3,��
2024/04/20,16:50,0.515,0.785,0.492,0.974,0.700,0.317,0.556,0.521,�k��,5.1,��
2024/04/20,17:00,0.516,0.786,0.491,0.977,0.698,0.318,0.555,0.522,�k��,6.5,��
2024/04/20,17:10,0.513,0.786,0.490,0.976,0.698,0.319,0.555,0.520,�k�k��,4.5,��
2024/04/20,17:20,0.515,0.787,0.492,0.977,0.699,0.317,0.554,0.521,�k�k��,4.6,��
2024/04/20,17:30,0.515,0.785,0.492,0.975,0.700,0.317,0.555,0.522,�k�k��,4.1,��
2024/04/20,17:40,0.515,0.788,0.492,0.975,0.701,0.318,0.554,0.523,�k�k��,4.4,��
2024/04/20,17:50,0.515,0.787,0.492,0.974,0.701,0.318,0.554,0.522,�k��,7.1,��
2024/04/20,18:00,0.514,0.787,0.494,0.976,0.700,0.317,0.555,0.524,�k��,5.6,��
2024/04/20,18:10,0.516,0.788,0.492,0.976,0.701,0.318,0.557,0.523,�k��,7.1,��
2024/04/20,18:20,0.515,0.789,0.491,0.976,0.701,0.319,0.555,0.523,�k��,6.3,��
2024/04/20,18:30,0.515,0.786,0.494,0.976,0.699,0.316,0.556,0.522,�k��,5.7,��
2024/04/20,18:40,0.515,0.789,0.491,0.976,0.699,0.318,0.556,0.523,�k�k��,5.9,��
2024/04/20,18:50,0.515,0.788,0.492,0.975,0.701,0.317,0.553,0.523,�k��,6.1,��
2024/04/20,19:00,0.515,0.789,0.491,0.975,0.701,0.317,0.556,0.522,�k�k��,5.9,��
2024/04/20,19:10,0.515,0.786,0.493,0.976,0.700,0.317,0.556,0.522,�k��,4.4,��
2024/04/20,19:20,0.516,0.785,0.491,0.974,0.699,0.316,0.555,0.521,�k�k��,5.2,��
2024/04/20,19:30,0.515,0.785,0.491,0.975,0.701,0.318,0.556,0.522,�k�k��,4.7,��
2024/04/20,19:40,0.515,0.786,0.492,0.975,0.700,0.318,0.555,0.521,�k�k��,4.2,��
2024/04/20,19:50,0.515,0.786,0.492,0.974,0.699,0.316,0.555,0.522,�k�k��,5.5,��
2024/04/20,20:00,0.516,0.786,0.492,0.975,0.700,0.317,0.557,0.521,�k�k��,5.3,��
2024/04/20,20:10,0.515,0.787,0.491,0.974,0.700,0.317,0.557,0.522,�k�k��,3.8,��
2024/04/20,20:20,0.516,0.786,0.490,0.975,0.702,0.319,0.556,0.522,�k�k��,4.8,��
2024/04/20,20:30,0.515,0.787,0.491,0.975,0.700,0.318,0.556,0.521,�k�k��,5.7,��
2024/04/20,20:40,0.515,0.788,0.491,0.975,0.701,0.319,0.557,0.521,�k�k��,5.7,��
2024/04/20,20:50,0.513,0.788,0.489,0.975,0.701,0.318,0.557,0.522,�k�k��,6.7,��
2024/04/20,21:00,0.515,0.786,0.492,0.973,0.701,0.318,0.555,0.521,�k�k��,6.5,��
2024/04/20,21:10,0.516,0.788,0.491,0.976,0.699,0.318,0.559,0.521,�k�k��,7.6,��
2024/04/20,21:20,0.517,0.787,0.492,0.976,0.700,0.319,0.556,0.521,�k�k��,6.5,��
2024/04/20,21:30,0.515,0.786,0.491,0.974,0.701,0.317,0.558,0.521,�k�k��,6.1,��
2024/04/20,21:40,0.516,0.784,0.491,0.977,0.701,0.320,0.558,0.522,�k�k��,7.6,��
2024/04/20,21:50,0.513,0.785,0.491,0.974,0.700,0.318,0.558,0.521,�k�k��,7.2,��
2024/04/20,22:00,0.516,0.788,0.492,0.975,0.701,0.318,0.557,0.521,�k�k��,7.8,��
2024/04/20,22:10,0.516,0.785,0.491,0.976,0.701,0.320,0.557,0.522,�k�k��,9.8,��
2024/04/20,22:20,0.514,0.785,0.490,0.975,0.701,0.319,0.558,0.521,�k�k��,8.8,��
2024/04/20,22:30,0.516,0.787,0.491,0.976,0.701,0.318,0.556,0.521,�k�k��,8.1,��
2024/04/20,22:40,0.515,0.788,0.492,0.975,0.701,0.318,0.557,0.522,�k,6.9,��
2024/04/20,22:50,0.514,0.786,0.490,0.976,0.699,0.318,0.555,0.521,�k,5.6,��
2024/04/20,23:00,0.514,0.784,0.491,0.974,0.699,0.318,0.557,0.522,�k�k��,4.8,��
2024/04/20,23:10,0.515,0.786,0.492,0.975,0.702,0.317,0.556,0.520,�k�k��,5.5,��
2024/04/20,23:20,0.516,0.787,0.491,0.976,0.697,0.318,0.557,0.521,�k�k��,5.1,��
2024/04/20,23:30,0.514,0.787,0.493,0.975,0.700,0.319,0.558,0.521,�k�k��,6.0,��
2024/04/20,23:40,0.515,0.785,0.491,0.977,0.701,0.319,0.556,0.520,�k,7.4,��
2024/04/20,23:50,0.515,0.784,0.492,0.975,0.699,0.318,0.557,0.520,�k,7.6,��
